Location: Unspecified
(0.0000°N, 0.0000°E)
Time: 11:30:56
(UTC+02:00)

Haruka - Visible Passes

Search period start: 23 October 2017 00:00
Search period end: 01 November 2017 23:00
Orbit: 523 x 21234 km, 31.2° (Epoch: 22 October)

Date Brightness Start Highest point End Pass type
(mag) Time Alt. Az. Time Alt. Az. Time Alt. Az.
23 Oct 7.6 17:29:30 10° NW 21:46:09 82° SW 22:37:18 10° SE visible
24 Oct 7.4 18:48:39 10° NW 23:11:53 62° SW 23:44:22 13° SE visible
25 Oct 7.2 20:17:44 10° WNW 00:30:10 42° SW 00:49:07 21° SSE visible
26 Oct 7.1 22:29:41 10° WNW 01:44:59 25° SW 01:53:52 20° S visible
27 Oct 8.2 15:14:01 10° NW 18:54:26 67° ENE 20:27:33 10° ESE visible
28 Oct 7.3 02:50:21 10° SW 02:58:18 12° SSW 02:58:37 12° SSW visible
28 Oct 7.9 16:26:39 10° NW 20:25:13 88° ENE 21:38:12 10° SE visible
29 Oct 7.6 16:42:04 10° NW 20:58:10 72° SW 21:46:56 10° SE visible
30 Oct 7.4 18:02:57 10° NW 22:23:43 52° SW 22:54:34 10° SE visible
31 Oct 5.2 05:29:31 10° S 05:30:49 12° SE 05:32:13 10° ESE visible
31 Oct 7.2 19:38:13 10° WNW 23:42:17 34° SW 00:00:39 13° SSE visible
